Location: *
(43.9900°N, 3.4811°E)
Time: 00:21:07
(UTC+00:00)

Cosmos 1697 Rocket - Pass Details

Date: 25 August 2019
Orbit: 831 x 844 km, 71.0° (Epoch: 22 October)

Event Time Altitude Azimuth Distance (km) Brightness Sun altitude
Rises 21:16:37 0° 327° (NNW) 3,411 7.2 -25.5°
Reaches altitude 10° 21:19:13 10° 320° (NW) 2,472 6.2 -25.8°
Maximum altitude 21:24:22 37° 254° (WSW) 1,290 3.8 -26.4°
Enters shadow 21:25:57 31° 221° (SW) 1,443 3.8 -26.6°
